Regional Weather Roundup
Issued by NWS

Home | Current Version | Previous Version | Text Only | Print | Product List | Glossary Off
Versions: 1 2 3 4 5 6 7 8 9 10 11 12 13 14 15 16 17 18 19 20 21 22 23 24 25 26 27 28 29 30 31 32 33 34 35 36 37 38 39 40 41 42 43 44 45 46 47 48 49 50

000
ASUS43 KMKX 210411
RWRWI

WISCONSIN REGIONAL WEATHER ROUNDUP
NATIONAL WEATHER SERVICE MILWAUKEE/SULLIVAN WI
1100 PM CDT MON APR 20 2015

NOTE: "FAIR" INDICATES FEW OR NO CLOUDS BELOW 12,000 FEET WITH NO
SIGNIFICANT WEATHER AND/OR OBSTRUCTIONS TO VISIBILITY.

WIZ001-002-006>008-014>016-023>028-210500-
NORTHWEST WISCONSIN

CITY           SKY/WX    TMP DP  RH WIND       PRES   REMARKS
SUPERIOR ARPT  CLOUDY    35  32  89 W12       29.40F WCI  26
ASHLAND        LGT SNOW  33  31  92 SW12      29.36F FOG     WCI  24
HAYWARD        LGT SNOW  33  29  85 W8        29.40F FOG     WCI  26
SIREN          CLOUDY    34  31  89 W10G18    29.46S WCI  26
CUMBERLAND     LGT SNOW  32  32 100 W13       29.45F WCI  22
RICE LAKE      FLURRIES  34  32  90 W8        29.47F WCI  28
CHETEK         LGT RAIN  35  31  87 W7        29.46F WCI  29
LADYSMITH      CLOUDY    35  31  83 W12G17    29.44F WCI  27
EAU CLAIRE     CLOUDY    37  29  72 W10       29.48S WCI  30
MENOMONIE      CLOUDY    37  31  78 W9        29.49F WCI  31
NEW RICHMOND   DRIZZLE   35  30  83 W17       29.50S WCI  25
OSCEOLA        MIX PCPN  36  32  87 W13       29.53S WCI  27
$$

WIZ003>005-009-010-017-018-210500-
NORTH CENTRAL WISCONSIN

CITY           SKY/WX    TMP DP  RH WIND       PRES   REMARKS
MANITOWISH WTR FLURRIES  32  29  89 W14       29.34F WCI  22
ARBOR VITAE    FLURRIES  34  30  83 W12G22    29.35S WCI  26
WOODRUFF       FLURRIES  34  30  83 W12G22    29.35S WCI  26
RHINELANDER    CLOUDY    34  26  72 W12       29.36F WCI  25
EAGLE RIVER    FLURRIES  34  27  75 W12G18    29.32F WCI  25
LAND O LAKES   CLOUDY    33  29  84 W8G16     29.32F WCI  26
PHILLIPS       FLURRIES  32  28  85 W12G18    29.38F WCI  23
TOMAHAWK       FLURRIES  34  26  74 W12G18    29.38F WCI  25
MEDFORD        FLURRIES  34  28  80 W12G23    29.40F WCI  25
MERRILL        CLOUDY    35  28  75 W12       29.39F WCI  27
$$

WIZ029-030-035-036-043>047-210500-
CENTRAL WISCONSIN

CITY           SKY/WX    TMP DP  RH WIND       PRES   REMARKS
WAUSAU         CLOUDY    36  27  69 W12G22    29.40F WCI  28
MOSINEE        CLOUDY    36  28  75 W13       29.43F WCI  27
MARSHFIELD     CLOUDY    37  28  70 W8        29.43F WCI  31
STEVENS POINT  CLOUDY    36  26  65 W13       29.44F WCI  28
WAUPACA        CLOUDY    41  30  63 W12G17    29.46S
WAUTOMA        CLOUDY    40  28  62 W10       29.48F WCI  33
WISC RAPIDS    CLOUDY    39  25  57 W8        29.47F WCI  33
CAMP DOUGLAS   CLOUDY    39  32  75 W15G23    29.48F WCI  31
$$

WIZ011>013-019>022-031-037>040-048>050-210500-
NORTHEAST WISCONSIN

CITY           SKY/WX    TMP DP  RH WIND       PRES   REMARKS
ANTIGO         CLOUDY    34  28  79 W10       29.38F WCI  26
SHAWANO        CLOUDY    41  30  66 W9G16     29.42F
OCONTO         CLOUDY    39  31  72 SW9       29.41S WCI  33
STURGEON BAY   CLOUDY    39  28  65 W15       29.43F WCI  31
GREEN BAY      CLOUDY    41  31  67 SW9       29.44F
MANITOWOC      CLOUDY    41  31  67 W13       29.46F
APPLETON       CLOUDY    39  28  65 W17       29.46F WCI  30
CLINTONVILLE   CLOUDY    39  28  65 W9        29.43F WCI  33
OSHKOSH        CLOUDY    41  30  65 SW8       29.47F
$$

WIZ032>034-041-042-053>061-210500-
SOUTHWEST WISCONSIN

CITY           SKY/WX    TMP DP  RH WIND       PRES   REMARKS
LA CROSSE      MOCLDY    42  32  67 W18G25    29.53S
SPARTA         CLOUDY    40  30  68 W9G21     29.51F WCI  34
VIROQUA        CLOUDY    37  32  81 W16G30    29.53F WCI  28
BOSCOBEL       CLOUDY    42  31  64 W10G20    29.58F
PRAIRIE DU CHI CLOUDY    42  30  63 W10G20    29.59F
PLATTEVILLE    CLOUDY    40  32  71 W15G23    29.59F WCI  32
$$

WIZ056-057-062-063-064-067-068-210500-
SOUTH CENTRAL WISCONSIN

CITY           SKY/WX    TMP DP  RH WIND       PRES   REMARKS
REEDSBURG      CLOUDY    39  29  67 SW13      29.52F WCI  32
BARABOO/DELLS  CLOUDY    40  27  61 W13       29.51F WCI  32
LONE ROCK      CLOUDY    40  32  73 W14       29.56F WCI  32
MINERAL POINT  CLOUDY    41  32  70 W18       29.56F
MADISON        MOCLDY    42  28  57 W9        29.53F
MIDDLETON      CLOUDY    42  29  59 W10G16    29.54F
WATERTOWN      CLOUDY    41  29  62 W15G25    29.52F
MONROE         CLOUDY    41  32  70 W18G26    29.57F
JANESVILLE     CLOUDY    43  32  65 W12       29.57S
$$

WIZ051-052-058>065-066-070>072-210500-
SOUTHEAST WISCONSIN

CITY           SKY/WX    TMP DP  RH WIND       PRES   REMARKS
MILWAUKEE      CLOUDY    44  30  57 W12       29.54F
WAUKESHA       CLOUDY    39  30  70 SW14G22   29.54F WCI  31
MILWAUKEE/TIMM CLOUDY    41  30  65 W15G22    29.53F
RACINE         CLOUDY    44  30  57 W15G22    29.56F
BURLINGTON     CLOUDY    40  31  68 W10       29.56S WCI  34
KENOSHA        CLOUDY    43  31  62 W18       29.56F
FOND DU LAC    CLOUDY    41  30  65 SW9       29.49F
SHEBOYGAN      CLOUDY    40  30  67 SW14      29.48F WCI  32
WEST BEND      CLOUDY    39  30  70 SW8       29.50F WCI  34
JUNEAU         CLOUDY    40  29  62 W14G25    29.52S WCI  33
$$

LSZ147-162-210500-
LAKE SUPERIOR

STATION/POSITION TIME  TEMP    WIND        PRES    WAVE
                       AIR SEA DIR/SP/G            HT/PER
                 (UTC) (F)     (DEG/KT/KT) (MB)    (FT/S)
DEVILS ISLAND    0400   35     240/ 24/ 30  993.2F
PORT WING        0340   37     250/ 17/ 24  995.3S
SAXON HARBOR     0340   35     220/  8/ 16  994.6F
$$

LMZ867-665-643>646-210500-
LAKE MICHIGAN

STATION/POSITION TIME  TEMP    WIND        PRES    WAVE
                       AIR SEA DIR/SP/G            HT/PER
                 (UTC) (F)     (DEG/KT/KT) (MB)    (FT/S)
CHAMBERS ISLAND  0300   39     200/  8/ 11  995.9S
NORTHPORT PIER   0300   39     260/  6/ 13  995.6S
SISTER BAY       0302   40     270/ 13/ 14   N/A
KEWAUNEE LAKESHO 0300   41     260/ 12/ 16  996.6S
SHEBOYGAN LAKESH 0400   42     240/ 10/ 13  999.1F
PORT WASHINGTON  0300   43     270/  6/ 13 1000.7R
MILWAUKEE LAKESH 0300   44     260/  9/ 12   N/A
KENOSHA   LAKESH 0400   44     250/ 12/ 19 1001.7S
$$

TC  - TEMPERATURE IN CELSIUS
VSB - VISIBILITY IN STATUTE MILES
WCI - WIND CHILL INDEX
HX  - HEAT INDEX




USA.gov is the U.S. government's official web portal to all federal, state and local government web resources and services.